owner,sensor,date,latitude,longitude,vertical_datum,wind_speed,wind_to_direction,wind_speed_of_gust,qcFlag 
ADCP,ioos:station:wmo:42369:1,2013-01-17T15:40:00Z,27.2070,-90.2830,60.4,6.8,305.0,99.0,'11111222,11111222,11144222' 
ADCP,ioos:station:wmo:42369:1,2013-01-17T16:00:00Z,27.2070,-90.2830,60.4,6.8,305.0,99.0,'11111222,11111222,11144222' 
ADCP,ioos:station:wmo:42369:1,2013-01-17T16:20:00Z,27.2070,-90.2830,60.4,6.8,305.0,99.0,'11111222,11111222,11144222' 
ADCP,ioos:station:wmo:42369:1,2013-01-17T16:40:00Z,27.2070,-90.2830,60.4,6.8,305.0,99.0,'11111222,11111222,11144222' 
ADCP,ioos:station:wmo:42369:1,2013-01-17T17:00:00Z,27.2070,-90.2830,60.4,6.8,305.0,99.0,'11111222,11111222,11144222' 
ADCP,ioos:station:wmo:42369:1,2013-01-17T17:20:00Z,27.2070,-90.2830,60.4,6.8,305.0,99.0,'11111222,11111222,11144222' 
ADCP,ioos:station:wmo:42369:1,2013-01-17T17:40:00Z,27.2070,-90.2830,60.4,6.8,305.0,99.0,'11111222,11111222,11144222' 
ADCP,ioos:station:wmo:42369:1,2013-01-17T18:00:00Z,27.2070,-90.2830,60.4,6.8,305.0,99.0,'11111222,11111222,11144222' 
ADCP,ioos:station:wmo:42369:1,2013-01-17T18:20:00Z,27.2070,-90.2830,60.4,6.8,305.0,99.0,'11111222,11111222,11144222' 
ADCP,ioos:station:wmo:42369:1,2013-01-17T18:40:00Z,27.2070,-90.2830,60.4,6.8,305.0,99.0,'11111222,11111222,11144222' 
ADCP,ioos:station:wmo:42369:1,2013-01-17T19:00:00Z,27.2070,-90.2830,60.4,6.8,305.0,99.0,'11111222,11111222,11144222' 
ADCP,ioos:station:wmo:42369:1,2013-01-17T19:20:00Z,27.2070,-90.2830,60.4,6.8,305.0,99.0,'11111222,11111222,11144222' 
ADCP,ioos:station:wmo:42369:1,2013-01-17T19:40:00Z,27.2070,-90.2830,60.4,6.8,305.0,99.0,'11111222,11111222,11144222' 
ADCP,ioos:station:wmo:42369:1,2013-01-17T20:00:00Z,27.2070,-90.2830,60.4,6.8,305.0,99.0,'11111222,11111222,11144222' 
ADCP,ioos:station:wmo:42369:1,2013-01-17T20:20:00Z,27.2070,-90.2830,60.4,6.8,305.0,99.0,'11111222,11111222,11144222' 
ADCP,ioos:station:wmo:42369:1,2013-01-17T20:40:00Z,27.2070,-90.2830,60.4,6.8,305.0,99.0,'11111222,11111222,11144222' 
ADCP,ioos:station:wmo:42369:1,2013-01-17T21:00:00Z,27.2070,-90.2830,60.4,6.8,305.0,99.0,'11111222,11111222,11144222' 
ADCP,ioos:station:wmo:42369:1,2013-01-17T21:20:00Z,27.2070,-90.2830,60.4,6.8,305.0,99.0,'11111222,11111222,11144222' 
ADCP,ioos:station:wmo:42369:1,2013-01-17T21:40:00Z,27.2070,-90.2830,60.4,6.8,305.0,99.0,'11111222,11111222,11144222' 
ADCP,ioos:station:wmo:42369:1,2013-01-17T22:00:00Z,27.2070,-90.2830,60.4,6.8,305.0,99.0,'11111222,11111222,11144222' 
ADCP,ioos:station:wmo:42369:1,2013-01-17T22:20:00Z,27.2070,-90.2830,60.4,6.8,305.0,99.0,'11111222,11111222,11144222' 
ADCP,ioos:station:wmo:42369:1,2013-01-17T22:40:00Z,27.2070,-90.2830,60.4,6.8,305.0,99.0,'11111222,11111222,11144222' 
ADCP,ioos:station:wmo:42369:1,2013-01-17T23:00:00Z,27.2070,-90.2830,60.4,6.8,305.0,99.0,'11111222,11111222,11144222' 
ADCP,ioos:station:wmo:42369:1,2013-01-17T23:20:00Z,27.2070,-90.2830,60.4,6.8,305.0,99.0,'11111222,11111222,11144222' 
ADCP,ioos:station:wmo:42369:1,2013-01-17T23:40:00Z,27.2070,-90.2830,60.4,6.8,305.0,99.0,'11111222,11111222,11144222' 
ADCP,ioos:station:wmo:42369:1,2013-01-18T00:00:00Z,27.2070,-90.2830,60.4,6.8,305.0,99.0,'11111222,11111222,11144222' 
ADCP,ioos:station:wmo:42369:1,2013-01-18T00:20:00Z,27.2070,-90.2830,60.4,6.8,305.0,99.0,'11111222,11111222,11144222' 
ADCP,ioos:station:wmo:42369:1,2013-01-18T00:40:00Z,27.2070,-90.2830,60.4,6.8,305.0,99.0,'11111222,11111222,11144222' 
ADCP,ioos:station:wmo:42369:1,2013-01-18T01:00:00Z,27.2070,-90.2830,60.4,6.8,305.0,99.0,'11111222,11111222,11144222' 
ADCP,ioos:station:wmo:42369:1,2013-01-18T01:20:00Z,27.2070,-90.2830,60.4,6.8,305.0,99.0,'11111222,11111222,11144222' 
ADCP,ioos:station:wmo:42369:1,2013-01-18T01:40:00Z,27.2070,-90.2830,60.4,6.8,305.0,99.0,'11111222,11111222,11144222' 
ADCP,ioos:station:wmo:42369:1,2013-01-18T02:00:00Z,27.2070,-90.2830,60.4,6.8,305.0,99.0,'11111222,11111222,11144222' 
ADCP,ioos:station:wmo:42369:1,2013-01-18T02:20:00Z,27.2070,-90.2830,60.4,6.8,305.0,99.0,'11111222,11111222,11144222' 
ADCP,ioos:station:wmo:42369:1,2013-01-18T02:40:00Z,27.2070,-90.2830,60.4,6.8,305.0,99.0,'11111222,11111222,11144222' 
ADCP,ioos:station:wmo:42369:1,2013-01-18T03:00:00Z,27.2070,-90.2830,60.4,6.8,305.0,99.0,'11111222,11111222,11144222' 
ADCP,ioos:station:wmo:42369:1,2013-01-18T03:20:00Z,27.2070,-90.2830,60.4,6.8,305.0,99.0,'11111222,11111222,11144222' 
ADCP,ioos:station:wmo:42369:1,2013-01-18T03:40:00Z,27.2070,-90.2830,60.4,6.8,305.0,99.0,'11111222,11111222,11144222' 
ADCP,ioos:station:wmo:42369:1,2013-01-18T04:00:00Z,27.2070,-90.2830,60.4,6.8,305.0,99.0,'11111222,11111222,11144222' 
ADCP,ioos:station:wmo:42369:1,2013-01-18T04:20:00Z,27.2070,-90.2830,60.4,6.8,305.0,99.0,'11111222,11111222,11144222' 
ADCP,ioos:station:wmo:42369:1,2013-01-18T04:40:00Z,27.2070,-90.2830,60.4,6.8,305.0,99.0,'11111222,11111222,11144222' 
ADCP,ioos:station:wmo:42369:1,2013-01-18T05:00:00Z,27.2070,-90.2830,60.4,6.8,305.0,99.0,'11111222,11111222,11144222' 
ADCP,ioos:station:wmo:42369:1,2013-01-18T05:20:00Z,27.2070,-90.2830,60.4,6.8,305.0,99.0,'11111222,11111222,11144222' 
ADCP,ioos:station:wmo:42369:1,2013-01-18T05:40:00Z,27.2070,-90.2830,60.4,6.8,305.0,99.0,'11111222,11111222,11144222' 
ADCP,ioos:station:wmo:42369:1,2013-01-18T06:00:00Z,27.2070,-90.2830,60.4,6.8,305.0,99.0,'11111222,11111222,11144222' 
ADCP,ioos:station:wmo:42369:1,2013-01-18T06:20:00Z,27.2070,-90.2830,60.4,6.8,305.0,99.0,'11111222,11111222,11144222' 
ADCP,ioos:station:wmo:42369:1,2013-01-18T06:40:00Z,27.2070,-90.2830,60.4,6.8,305.0,99.0,'11111222,11111222,11144222' 
ADCP,ioos:station:wmo:42369:1,2013-01-18T07:00:00Z,27.2070,-90.2830,60.4,6.8,305.0,99.0,'11111222,11111222,11144222' 
ADCP,ioos:station:wmo:42369:1,2013-01-18T07:20:00Z,27.2070,-90.2830,60.4,6.8,305.0,99.0,'11111222,11111222,11144222' 
ADCP,ioos:station:wmo:42369:1,2013-01-18T07:40:00Z,27.2070,-90.2830,60.4,6.8,305.0,99.0,'11111222,11111222,11144222' 
ADCP,ioos:station:wmo:42369:1,2013-01-18T08:00:00Z,27.2070,-90.2830,60.4,6.8,305.0,99.0,'11111222,11111222,11144222' 
ADCP,ioos:station:wmo:42369:1,2013-01-18T08:20:00Z,27.2070,-90.2830,60.4,6.8,305.0,99.0,'11111222,11111222,11144222' 
ADCP,ioos:station:wmo:42369:1,2013-01-18T08:40:00Z,27.2070,-90.2830,60.4,6.8,305.0,99.0,'11111222,11111222,11144222' 
ADCP,ioos:station:wmo:42369:1,2013-01-18T09:00:00Z,27.2070,-90.2830,60.4,6.8,305.0,99.0,'11111222,11111222,11144222' 
ADCP,ioos:station:wmo:42369:1,2013-01-30T15:40:00Z,27.2070,-90.2830,60.4,14.7,197.0,99.0,'11111222,11111222,11144222' 
ADCP,ioos:station:wmo:42369:1,2013-01-30T16:00:00Z,27.2070,-90.2830,60.4,14.6,201.0,99.0,'11111222,11111222,11144222' 
ADCP,ioos:station:wmo:42369:1,2013-01-30T16:20:00Z,27.2070,-90.2830,60.4,13.7,201.0,99.0,'11111222,11111222,11144222' 
ADCP,ioos:station:wmo:42369:1,2013-01-30T16:40:00Z,27.2070,-90.2830,60.4,13.2,201.0,99.0,'11111222,11111222,11144222' 
ADCP,ioos:station:wmo:42369:1,2013-01-30T17:00:00Z,27.2070,-90.2830,60.4,13.8,200.0,99.0,'11111222,11111222,11144222' 
ADCP,ioos:station:wmo:42369:1,2013-01-30T17:20:00Z,27.2070,-90.2830,60.4,13.7,202.0,99.0,'11111222,11111222,11144222' 
ADCP,ioos:station:wmo:42369:1,2013-01-30T17:40:00Z,27.2070,-90.2830,60.4,11.4,237.0,99.0,'11111222,11111222,11144222' 
ADCP,ioos:station:wmo:42369:1,2013-01-30T18:00:00Z,27.2070,-90.2830,60.4,7.0,312.0,99.0,'11111222,11111222,11144222' 
ADCP,ioos:station:wmo:42369:1,2013-01-30T18:20:00Z,27.2070,-90.2830,60.4,7.2,305.0,99.0,'11111222,11111222,11144222' 
ADCP,ioos:station:wmo:42369:1,2013-01-30T18:40:00Z,27.2070,-90.2830,60.4,6.2,310.0,99.0,'11111222,11111222,11144222' 
ADCP,ioos:station:wmo:42369:1,2013-01-30T19:00:00Z,27.2070,-90.2830,60.4,6.1,309.0,99.0,'11111222,11111222,11144222' 
ADCP,ioos:station:wmo:42369:1,2013-01-30T19:20:00Z,27.2070,-90.2830,60.4,5.8,304.0,99.0,'11111222,11111222,11144222' 
ADCP,ioos:station:wmo:42369:1,2013-01-30T19:40:00Z,27.2070,-90.2830,60.4,7.1,316.0,99.0,'11111222,11111222,11144222' 
ADCP,ioos:station:wmo:42369:1,2013-01-30T20:00:00Z,27.2070,-90.2830,60.4,6.1,308.0,99.0,'11111222,11111222,11144222' 
ADCP,ioos:station:wmo:42369:1,2013-01-30T20:20:00Z,27.2070,-90.2830,60.4,5.6,307.0,99.0,'11111222,11111222,11144222' 
ADCP,ioos:station:wmo:42369:1,2013-01-30T20:40:00Z,27.2070,-90.2830,60.4,5.0,305.0,99.0,'11111222,11111222,11144222' 
ADCP,ioos:station:wmo:42369:1,2013-01-30T21:00:00Z,27.2070,-90.2830,60.4,5.8,310.0,99.0,'11111222,11111222,11144222' 
ADCP,ioos:station:wmo:42369:1,2013-01-30T21:20:00Z,27.2070,-90.2830,60.4,4.4,302.0,99.0,'11111222,11111222,11144222' 
ADCP,ioos:station:wmo:42369:1,2013-01-30T21:40:00Z,27.2070,-90.2830,60.4,4.8,304.0,99.0,'11111222,11111222,11144222' 
ADCP,ioos:station:wmo:42369:1,2013-01-30T22:00:00Z,27.2070,-90.2830,60.4,5.1,294.0,99.0,'11111222,11111222,11144222' 
ADCP,ioos:station:wmo:42369:1,2013-01-30T22:20:00Z,27.2070,-90.2830,60.4,4.6,297.0,99.0,'11111222,11111222,11144222' 
ADCP,ioos:station:wmo:42369:1,2013-01-30T22:40:00Z,27.2070,-90.2830,60.4,5.1,298.0,99.0,'11111222,11111222,11144222' 
ADCP,ioos:station:wmo:42369:1,2013-01-30T23:00:00Z,27.2070,-90.2830,60.4,5.0,299.0,99.0,'11111222,11111222,11144222' 
ADCP,ioos:station:wmo:42369:1,2013-01-30T23:20:00Z,27.2070,-90.2830,60.4,5.1,299.0,99.0,'11111222,11111222,11144222' 
ADCP,ioos:station:wmo:42369:1,2013-01-30T23:40:00Z,27.2070,-90.2830,60.4,5.2,308.0,99.0,'11111222,11111222,11144222' 
ADCP,ioos:station:wmo:42369:1,2013-01-31T00:00:00Z,27.2070,-90.2830,60.4,7.1,310.0,99.0,'11111222,11111222,11144222' 
ADCP,ioos:station:wmo:42369:1,2013-01-31T00:20:00Z,27.2070,-90.2830,60.4,7.6,304.0,99.0,'11111222,11111222,11144222' 
ADCP,ioos:station:wmo:42369:1,2013-01-31T00:40:00Z,27.2070,-90.2830,60.4,7.5,312.0,99.0,'11111222,11111222,11144222' 
ADCP,ioos:station:wmo:42369:1,2013-01-31T01:00:00Z,27.2070,-90.2830,60.4,8.7,307.0,99.0,'11111222,11111222,11144222' 
ADCP,ioos:station:wmo:42369:1,2013-01-31T01:20:00Z,27.2070,-90.2830,60.4,9.6,309.0,99.0,'11111222,11111222,11144222' 
ADCP,ioos:station:wmo:42369:1,2013-01-31T01:40:00Z,27.2070,-90.2830,60.4,9.3,308.0,99.0,'11111222,11111222,11144222' 
ADCP,ioos:station:wmo:42369:1,2013-01-31T02:00:00Z,27.2070,-90.2830,60.4,9.6,296.0,99.0,'11111222,11111222,11144222' 
ADCP,ioos:station:wmo:42369:1,2013-01-31T02:20:00Z,27.2070,-90.2830,60.4,10.5,264.0,99.0,'11111222,11111222,11144222' 
ADCP,ioos:station:wmo:42369:1,2013-01-31T02:40:00Z,27.2070,-90.2830,60.4,10.4,262.0,99.0,'11111222,11111222,11144222' 
ADCP,ioos:station:wmo:42369:1,2013-01-31T03:00:00Z,27.2070,-90.2830,60.4,12.0,199.0,99.0,'11111222,11111222,11144222' 
ADCP,ioos:station:wmo:42369:1,2013-01-31T03:20:00Z,27.2070,-90.2830,60.4,11.3,237.0,99.0,'11111222,11111222,11144222' 
ADCP,ioos:station:wmo:42369:1,2013-01-31T03:40:00Z,27.2070,-90.2830,60.4,12.4,165.0,99.0,'11111222,11111222,11144222' 
ADCP,ioos:station:wmo:42369:1,2013-01-31T04:00:00Z,27.2070,-90.2830,60.4,13.6,122.0,99.0,'11111222,11111222,11144222' 
ADCP,ioos:station:wmo:42369:1,2013-01-31T04:20:00Z,27.2070,-90.2830,60.4,14.7,121.0,99.0,'11111222,11111222,11144222' 
ADCP,ioos:station:wmo:42369:1,2013-01-31T04:40:00Z,27.2070,-90.2830,60.4,15.2,77.0,99.0,'11111222,11111222,11144222' 
ADCP,ioos:station:wmo:42369:1,2013-01-31T05:00:00Z,27.2070,-90.2830,60.4,14.6,82.0,99.0,'11111222,11111222,11144222' 
ADCP,ioos:station:wmo:42369:1,2013-01-31T05:20:00Z,27.2070,-90.2830,60.4,14.0,74.0,99.0,'11111222,11111222,11144222' 
ADCP,ioos:station:wmo:42369:1,2013-01-31T05:40:00Z,27.2070,-90.2830,60.4,15.2,59.0,99.0,'11111222,11111222,11144222' 
ADCP,ioos:station:wmo:42369:1,2013-01-31T06:00:00Z,27.2070,-90.2830,60.4,14.8,46.0,99.0,'11111222,11111222,11144222' 
ADCP,ioos:station:wmo:42369:1,2013-01-31T06:20:00Z,27.2070,-90.2830,60.4,13.3,77.0,99.0,'11111222,11111222,11144222' 
ADCP,ioos:station:wmo:42369:1,2013-01-31T06:40:00Z,27.2070,-90.2830,60.4,13.4,53.0,99.0,'11111222,11111222,11144222' 
ADCP,ioos:station:wmo:42369:1,2013-01-31T07:00:00Z,27.2070,-90.2830,60.4,13.5,46.0,99.0,'11111222,11111222,11144222' 
ADCP,ioos:station:wmo:42369:1,2013-01-31T07:20:00Z,27.2070,-90.2830,60.4,13.8,39.0,99.0,'11111222,11111222,11144222' 
ADCP,ioos:station:wmo:42369:1,2013-01-31T07:40:00Z,27.2070,-90.2830,60.4,12.5,51.0,99.0,'11111222,11111222,11144222' 
ADCP,ioos:station:wmo:42369:1,2013-01-31T08:00:00Z,27.2070,-90.2830,60.4,13.5,26.0,99.0,'11111222,11111222,11144222' 
ADCP,ioos:station:wmo:42369:1,2013-01-31T08:20:00Z,27.2070,-90.2830,60.4,11.5,35.0,99.0,'11111222,11111222,11144222' 
ADCP,ioos:station:wmo:42369:1,2013-01-31T08:40:00Z,27.2070,-90.2830,60.4,12.0,27.0,99.0,'11111222,11111222,11144222' 
ADCP,ioos:station:wmo:42369:1,2013-01-31T09:00:00Z,27.2070,-90.2830,60.4,11.7,26.0,99.0,'11111222,11111222,11144222' 
ADCP,ioos:station:wmo:42369:1,2013-01-31T09:20:00Z,27.2070,-90.2830,60.4,12.4,33.0,99.0,'11111222,11111222,11144222' 
ADCP,ioos:station:wmo:42369:1,2013-01-31T09:40:00Z,27.2070,-90.2830,60.4,11.9,32.0,99.0,'11111222,11111222,11144222' 
ADCP,ioos:station:wmo:42369:1,2013-01-31T10:00:00Z,27.2070,-90.2830,60.4,12.2,25.0,99.0,'11111222,11111222,11144222' 
ADCP,ioos:station:wmo:42369:1,2013-01-31T10:20:00Z,27.2070,-90.2830,60.4,11.8,34.0,99.0,'11111222,11111222,11144222' 
ADCP,ioos:station:wmo:42369:1,2013-01-31T10:40:00Z,27.2070,-90.2830,60.4,11.4,29.0,99.0,'11111222,11111222,11144222' 
ADCP,ioos:station:wmo:42369:1,2013-01-31T11:00:00Z,27.2070,-90.2830,60.4,11.0,31.0,99.0,'11111222,11111222,11144222' 
ADCP,ioos:station:wmo:42369:1,2013-01-31T11:20:00Z,27.2070,-90.2830,60.4,8.8,42.0,99.0,'11111222,11111222,11144222' 
ADCP,ioos:station:wmo:42369:1,2013-01-31T11:40:00Z,27.2070,-90.2830,60.4,9.9,32.0,99.0,'11111222,11111222,11144222' 
ADCP,ioos:station:wmo:42369:1,2013-01-31T12:00:00Z,27.2070,-90.2830,60.4,8.9,36.0,99.0,'11111222,11111222,11144222' 
ADCP,ioos:station:wmo:42369:1,2013-01-31T12:20:00Z,27.2070,-90.2830,60.4,8.9,36.0,99.0,'11111222,11111222,11144222' 
ADCP,ioos:station:wmo:42369:1,2013-01-31T12:40:00Z,27.2070,-90.2830,60.4,6.3,47.0,99.0,'11111222,11111222,11144222' 
ADCP,ioos:station:wmo:42369:1,2013-01-31T13:00:00Z,27.2070,-90.2830,60.4,7.0,41.0,99.0,'11111222,11111222,11144222' 
ADCP,ioos:station:wmo:42369:1,2013-01-31T13:20:00Z,27.2070,-90.2830,60.4,5.2,56.0,99.0,'11111222,11111222,11144222' 
ADCP,ioos:station:wmo:42369:1,2013-01-31T13:40:00Z,27.2070,-90.2830,60.4,5.9,52.0,99.0,'11111222,11111222,11144222' 
ADCP,ioos:station:wmo:42369:1,2013-01-31T14:00:00Z,27.2070,-90.2830,60.4,4.6,55.0,99.0,'11111222,11111222,11144222' 
ADCP,ioos:station:wmo:42369:1,2013-01-31T14:20:00Z,27.2070,-90.2830,60.4,4.4,60.0,99.0,'11111222,11111222,11144222' 
ADCP,ioos:station:wmo:42369:1,2013-01-31T14:40:00Z,27.2070,-90.2830,60.4,3.6,65.0,99.0,'11111222,11111222,11144222' 
ADCP,ioos:station:wmo:42369:1,2013-01-31T15:00:00Z,27.2070,-90.2830,60.4,4.7,56.0,99.0,'11111222,11111222,11144222' 
ADCP,ioos:station:wmo:42369:1,2013-01-31T15:20:00Z,27.2070,-90.2830,60.4,4.7,56.0,99.0,'11111222,11111222,11144222' 
ADCP,ioos:station:wmo:42369:1,2013-01-31T15:40:00Z,27.2070,-90.2830,60.4,4.7,56.0,99.0,'11111222,11111222,11144222' 
ADCP,ioos:station:wmo:42369:1,2013-01-31T16:20:00Z,27.2070,-90.2830,60.4,3.3,66.0,99.0,'11111222,11111222,11144222' 
ADCP,ioos:station:wmo:42369:1,2013-01-31T16:40:00Z,27.2070,-90.2830,60.4,2.1,85.0,99.0,'11111222,11111222,11144222' 
ADCP,ioos:station:wmo:42369:1,2013-01-31T17:00:00Z,27.2070,-90.2830,60.4,3.7,57.0,99.0,'11111222,11111222,11144222' 
ADCP,ioos:station:wmo:42369:1,2013-01-31T17:20:00Z,27.2070,-90.2830,60.4,2.5,63.0,99.0,'11111222,11111222,11144222' 
ADCP,ioos:station:wmo:42369:1,2013-01-31T17:40:00Z,27.2070,-90.2830,60.4,1.7,77.0,99.0,'11111222,11111222,11144222' 
ADCP,ioos:station:wmo:42369:1,2013-01-31T18:00:00Z,27.2070,-90.2830,60.4,0.9,106.0,99.0,'11111222,11111222,11144222' 
ADCP,ioos:station:wmo:42369:1,2013-01-31T18:20:00Z,27.2070,-90.2830,60.4,0.8,93.0,99.0,'11111222,11111222,11144222' 
ADCP,ioos:station:wmo:42369:1,2013-01-31T18:40:00Z,27.2070,-90.2830,60.4,1.1,94.0,99.0,'11111222,11111222,11144222' 
ADCP,ioos:station:wmo:42369:1,2013-01-31T19:00:00Z,27.2070,-90.2830,60.4,0.7,94.0,99.0,'11111222,11111222,11144222' 
ADCP,ioos:station:wmo:42369:1,2013-01-31T19:20:00Z,27.2070,-90.2830,60.4,0.5,86.0,99.0,'11111222,11111222,11144222' 
ADCP,ioos:station:wmo:42369:1,2013-01-31T19:40:00Z,27.2070,-90.2830,60.4,0.6,101.0,99.0,'11111222,11111222,11144222' 
ADCP,ioos:station:wmo:42369:1,2013-01-31T20:00:00Z,27.2070,-90.2830,60.4,0.5,90.0,99.0,'11111222,11111222,11144222' 
ADCP,ioos:station:wmo:42369:1,2013-01-31T20:20:00Z,27.2070,-90.2830,60.4,1.2,72.0,99.0,'11111222,11111222,11144222' 
ADCP,ioos:station:wmo:42369:1,2013-01-31T20:40:00Z,27.2070,-90.2830,60.4,0.8,95.0,99.0,'11111222,11111222,11144222' 
ADCP,ioos:station:wmo:42369:1,2013-01-31T21:00:00Z,27.2070,-90.2830,60.4,1.6,88.0,99.0,'11111222,11111222,11144222' 
ADCP,ioos:station:wmo:42369:1,2013-01-31T21:20:00Z,27.2070,-90.2830,60.4,0.8,95.0,99.0,'11111222,11111222,11144222' 
ADCP,ioos:station:wmo:42369:1,2013-01-31T21:40:00Z,27.2070,-90.2830,60.4,1.0,83.0,99.0,'11111222,11111222,11144222' 
ADCP,ioos:station:wmo:42369:1,2013-01-31T22:00:00Z,27.2070,-90.2830,60.4,1.0,96.0,99.0,'11111222,11111222,11144222' 
ADCP,ioos:station:wmo:42369:1,2013-01-31T22:20:00Z,27.2070,-90.2830,60.4,0.9,97.0,99.0,'11111222,11111222,11144222' 
ADCP,ioos:station:wmo:42369:1,2013-01-31T22:40:00Z,27.2070,-90.2830,60.4,1.1,76.0,99.0,'11111222,11111222,11144222' 
ADCP,ioos:station:wmo:42369:1,2013-01-31T23:00:00Z,27.2070,-90.2830,60.4,0.5,82.0,99.0,'11111222,11111222,11144222' 
ADCP,ioos:station:wmo:42369:1,2013-01-31T23:20:00Z,27.2070,-90.2830,60.4,1.4,73.0,99.0,'11111222,11111222,11144222' 
ADCP,ioos:station:wmo:42369:1,2013-01-31T23:40:00Z,27.2070,-90.2830,60.4,1.2,75.0,99.0,'11111222,11111222,11144222' 
 
DISCLAIMER: The Gulf of Mexico Coastal and Ocean Observing (GCOOS) Data Portal aggregates data from the regional data providers for the convenience of all data users. Data published on this website should not be used for navigation or certain other uses as we cannot guarantee data accuracy or availability. The data and delivery services are provided 'as is' without warranty of any kind. Data Source: Gulf of Mexico Coastal Ocean Observing System Data Portal (http://data.gcoos.org/) 
